DLH2KL EDDH-EDDF

Flight info

Callsign DLH2KL
Flight time N/A
Altitude 30000
Route AMLUH2C AMLUH M852 DENIX DCT RIMET/N0439F310 T157 KOKEB/N0392F230 T157 KERAX KERAX5A
Aircraft A321/M-SDE3FGHIRWY/LB1

Departure

Time 2026-05-06 15:03
Airport Hamburg Helmut Schmidt Airport (EDDH)

Arrival

Time N/A
Airport Frankfurt Main Airport (EDDF)
Time Latitude Longitude Altitude Speed Heading
2026-05-06 14:18 53.63412 10.00329 51 ft 0 kts 86°
2026-05-06 14:51 53.63411 10.00302 51 ft 4 kts 92°
2026-05-06 14:51 53.63415 10.00258 48 ft 4 kts 112°
2026-05-06 14:51 53.63428 10.00224 48 ft 4 kts 149°
2026-05-06 14:51 53.63441 10.00214 50 ft 0 kts 175°
2026-05-06 14:55 53.63439 10.00214 51 ft 1 kts 175°
2026-05-06 14:56 53.63399 10.00220 51 ft 9 kts 175°
2026-05-06 14:56 53.63334 10.00228 49 ft 10 kts 175°
2026-05-06 14:56 53.63259 10.00238 51 ft 11 kts 175°
2026-05-06 14:56 53.63176 10.00249 51 ft 13 kts 176°
2026-05-06 14:57 53.63084 10.00258 51 ft 14 kts 180°
2026-05-06 14:57 53.62998 10.00189 51 ft 13 kts 211°
2026-05-06 14:57 53.62937 10.00125 51 ft 11 kts 213°
2026-05-06 14:57 53.62883 10.00061 51 ft 2 kts 221°
2026-05-06 14:58 53.62877 10.00044 50 ft 0 kts 240°
2026-05-06 14:58 53.62873 10.00033 51 ft 2 kts 238°
2026-05-06 14:58 53.62861 10.00006 52 ft 5 kts 233°
2026-05-06 14:58 53.62842 9.99955 50 ft 0 kts 241°
2026-05-06 15:01 53.62842 9.99954 50 ft 0 kts 241°
2026-05-06 15:02 53.62835 9.99935 52 ft 8 kts 241°
2026-05-06 15:02 53.62795 9.99803 53 ft 13 kts 258°
2026-05-06 15:02 53.62832 9.99749 52 ft 7 kts 353°
2026-05-06 15:02 53.62864 9.99738 51 ft 3 kts 336°
2026-05-06 15:03 53.62939 9.99672 52 ft 34 kts 333°
2026-05-06 15:03 53.63412 9.99274 53 ft 113 kts 334°
2026-05-06 15:03 53.64282 9.98505 86 ft 167 kts 333°
2026-05-06 15:03 53.65305 9.97623 899 ft 165 kts 337°
2026-05-06 15:04 53.66299 9.96728 1635 ft 165 kts 338°
2026-05-06 15:04 53.67384 9.95798 1992 ft 184 kts 340°
2026-05-06 15:04 53.68599 9.94864 2369 ft 199 kts 347°
2026-05-06 15:04 53.69992 9.94667 2708 ft 206 kts
2026-05-06 15:05 53.71493 9.94596 2938 ft 228 kts
2026-05-06 15:05 53.73157 9.94470 3374 ft 246 kts
2026-05-06 15:05 53.74900 9.94338 4121 ft 254 kts
2026-05-06 15:05 53.76672 9.94426 4910 ft 256 kts 17°
2026-05-06 15:06 53.78241 9.95790 5691 ft 256 kts 44°
2026-05-06 15:06 53.79223 9.98288 6461 ft 259 kts 72°
2026-05-06 15:06 53.79415 10.01323 7203 ft 264 kts 92°
2026-05-06 15:06 53.79277 10.04446 7972 ft 269 kts 94°
2026-05-06 15:07 53.78858 10.07556 8737 ft 278 kts 114°
2026-05-06 15:07 53.77689 10.10192 9526 ft 288 kts 139°
2026-05-06 15:07 53.75919 10.11816 9971 ft 294 kts 159°
2026-05-06 15:07 53.73939 10.13026 10371 ft 314 kts 159°
2026-05-06 15:08 53.71838 10.14313 10564 ft 336 kts 159°
2026-05-06 15:08 53.69598 10.15692 11017 ft 346 kts 159°
2026-05-06 15:08 53.67326 10.17098 11718 ft 349 kts 159°
2026-05-06 15:08 53.65052 10.18511 12458 ft 349 kts 159°
2026-05-06 15:09 53.62764 10.19933 13176 ft 351 kts 160°
2026-05-06 15:09 53.60462 10.21365 13838 ft 354 kts 160°
2026-05-06 15:09 53.58145 10.22806 14436 ft 357 kts 160°
2026-05-06 15:09 53.55803 10.24260 15028 ft 360 kts 160°
2026-05-06 15:10 53.53440 10.25728 15613 ft 364 kts 161°
2026-05-06 15:10 53.51058 10.27211 16203 ft 367 kts 161°
2026-05-06 15:10 53.48654 10.28704 16780 ft 370 kts 161°
2026-05-06 15:10 53.46225 10.30204 17335 ft 374 kts 162°
2026-05-06 15:11 53.43773 10.31710 17902 ft 377 kts 162°
2026-05-06 15:11 53.41262 10.32988 18398 ft 379 kts 167°
2026-05-06 15:11 53.38707 10.34125 18879 ft 381 kts 167°
2026-05-06 15:11 53.36131 10.35275 19336 ft 385 kts 167°
2026-05-06 15:12 53.33534 10.36441 19801 ft 388 kts 167°
2026-05-06 15:12 53.30916 10.37618 20272 ft 391 kts 166°
2026-05-06 15:12 53.28277 10.38808 20729 ft 395 kts 166°
2026-05-06 15:12 53.25614 10.40010 21197 ft 398 kts 166°
2026-05-06 15:13 53.22930 10.41218 21673 ft 401 kts 166°
2026-05-06 15:13 53.20226 10.42431 22160 ft 404 kts 166°
2026-05-06 15:13 53.17501 10.43647 22658 ft 407 kts 166°
2026-05-06 15:13 53.14751 10.44823 23130 ft 409 kts 169°
2026-05-06 15:14 53.11918 10.45388 23560 ft 411 kts 179°
2026-05-06 15:14 53.09055 10.45187 23927 ft 413 kts 185°
2026-05-06 15:14 53.06182 10.44774 24324 ft 415 kts 185°
2026-05-06 15:14 53.03300 10.44368 24723 ft 417 kts 185°
2026-05-06 15:15 53.00401 10.43964 25116 ft 419 kts 184°
2026-05-06 15:15 52.97489 10.43562 25507 ft 421 kts 184°
2026-05-06 15:15 52.94565 10.43164 25894 ft 423 kts 184°
2026-05-06 15:15 52.91664 10.42774 26279 ft 425 kts 184°
2026-05-06 15:16 52.88708 10.42376 26664 ft 427 kts 185°
2026-05-06 15:16 52.85735 10.41971 27046 ft 429 kts 185°
2026-05-06 15:16 52.82754 10.41564 27430 ft 431 kts 185°
2026-05-06 15:16 52.79758 10.41156 27808 ft 433 kts 185°
2026-05-06 15:17 52.76743 10.40748 28168 ft 435 kts 185°